Location: Kennington
(51.1500°N, 0.8833°E)
Time: 11:31:22
(UTC+00:00)

ADEOS Rocket - Pass Details

Date: 21 September 2020
Orbit: 858 x 1307 km, 98.7° (Epoch: 30 October)

Event Time Altitude Azimuth Distance (km) Brightness Sun altitude
Rises 03:15:22 0° 143° (SE) 3,976 6.3 -22.5°
Reaches altitude 10° 03:18:07 10° 138° (SE) 2,955 5.6 -22.2°
Maximum altitude 03:24:27 49° 66° (ENE) 1,294 4.0 -21.3°
Drops below altitude 10° 03:30:12 10° 354° (N) 2,687 5.6 -20.5°
Sets 03:32:36 0° 349° (NNW) 3,587 6.2 -20.2°
